N8DH Weather Reports


Display with metric or nautical units.
time (UTC)temp
F
wind
direction
speed
MPH
gust
MPH
rain 1hr
in
rain 24hr
in
rain mn
in
humidity
%
barometer
mb
20260510053137 54 297 0.0 3.0 0.00 0.19 0.00 89 1002.2
20260510051649 54 232 0.0 2.0 0.00 0.19 0.00 91 1001.8
20260510050018 53 330 0.0 2.0 0.00 0.19 0.00 91 1001.8
20260510044607 54 289 0.0 5.0 0.00 0.19 0.00 89 1001.5
20260510043146 54 170 1.0 7.0 0.00 0.19 0.00 89 1000.9
20260510041627 54 187 0.0 2.0 0.00 0.19 0.00 87 1000.6
20260510040004 55 193 1.0 5.0 0.00 0.20 0.19 87 1000.6
20260510034610 54 174 0.0 2.0 0.00 0.20 0.19 89 1000.5
20260510033002 55 148 1.0 2.0 0.02 0.20 0.19 90 1000.5
20260510031555 55 166 0.0 2.0 0.02 0.20 0.19 90 1000.4
20260510030115 56 84 0.0 2.0 0.02 0.20 0.19 88 1000.2
20260510024643 57 305 0.0 11.0 0.04 0.20 0.19 85 1000.8
20260510023144 57 192 3.0 7.0 0.05 0.18 0.17 84 1000.6
20260510021644 57 224 3.0 7.0 0.05 0.18 0.17 83 1000.4
20260510020146 58 180 2.0 10.0 0.05 0.18 0.17 79 1000.2
20260510014517 56 219 5.0 11.0 0.01 0.14 0.13 83 1000.5
20260510013103 56 171 0.0 1.0 0.00 0.13 0.12 85 999.6
20260510011639 55 195 0.0 2.0 0.00 0.13 0.12 87 999.6
20260510010145 56 173 0.0 2.0 0.00 0.13 0.12 85 999.4
20260510004525 57 227 1.0 6.0 0.00 0.15 0.12 82 999.3
20260510003101 57 214 2.0 5.0 0.00 0.15 0.12 82 999.4
20260510001529 57 229 3.0 6.0 0.01 0.15 0.12 83 999.3
20260510000106 57 242 1.0 6.0 0.04 0.15 0.12 83 999.4
20260509234634 57 184 4.0 10.0 0.05 0.18 0.12 84 999.4
20260509233149 57 261 5.0 15.0 0.12 0.18 0.12 83 999.2
20260509231535 57 214 6.0 17.0 0.11 0.17 0.11 83 999.1
20260509230115 57 268 2.0 14.0 0.08 0.14 0.08 83 999.2
20260509224646 59 245 5.0 29.0 0.07 0.18 0.07 78 999.5
20260509223046 68 202 7.0 20.0 0.00 0.11 0.00 57 997.8
20260509221600 69 211 12.0 25.0 0.00 0.11 0.00 56 996.9
20260509220140 69 201 12.0 24.0 0.00 0.11 0.00 56 996.9
20260509214545 69 187 8.0 23.0 0.00 0.15 0.00 57 996.8
20260509213118 71 188 11.0 24.0 0.00 0.15 0.00 56 996.8
20260509211515 70 180 15.0 24.0 0.00 0.15 0.00 55 996.8
20260509210106 70 190 12.0 26.0 0.00 0.15 0.00 57 996.8
20260509204638 70 186 10.0 24.0 0.00 0.17 0.00 57 997.3
20260509203012 70 163 9.0 21.0 0.00 0.17 0.00 57 997.5
20260509201603 70 200 12.0 24.0 0.00 0.17 0.00 57 997.7
20260509200022 70 209 11.0 21.0 0.00 0.17 0.00 61 998.0
20260509194600 70 171 12.0 22.0 0.00 0.17 0.00 57 998.2
20260509193144 68 190 10.0 22.0 0.00 0.17 0.00 59 998.3
20260509191512 68 179 12.0 18.0 0.00 0.17 0.00 60 998.6
20260509190042 68 196 10.0 21.0 0.00 0.17 0.00 62 998.8
20260509184601 67 221 13.0 25.0 0.00 0.17 0.00 62 999.0
20260509183140 68 194 11.0 24.0 0.00 0.17 0.00 64 999.1
20260509181639 66 198 11.0 22.0 0.00 0.17 0.00 64 999.3
20260509180043 67 209 12.0 22.0 0.00 0.17 0.00 67 999.2
20260509174601 66 186 10.0 19.0 0.00 0.18 0.00 66 999.1
20260509173011 66 221 10.0 18.0 0.00 0.18 0.00 65 999.1
20260509171600 65 164 8.0 18.0 0.00 0.18 0.00 67 999.4
20260509170032 64 205 10.0 18.0 0.00 0.18 0.00 68 999.5
20260509164607 64 213 8.0 15.0 0.00 0.18 0.00 68 999.6
20260509163140 64 195 8.0 14.0 0.00 0.18 0.00 68 999.6
20260509161507 63 192 7.0 14.0 0.00 0.18 0.00 70 999.4
20260509160059 63 220 9.0 17.0 0.00 0.18 0.00 69 999.9
20260509154537 61 204 3.0 16.0 0.00 0.18 0.00 71 1000.0
20260509153059 62 201 7.0 15.0 0.00 0.18 0.00 72 1000.1
20260509151511 60 201 6.0 18.0 0.00 0.18 0.00 73 1000.3
20260509144531 59 228 6.0 12.0 0.00 0.18 0.00 77 1000.0
20260509143057 59 217 3.0 14.0 0.00 0.18 0.00 80 1000.0
20260509141509 59 277 5.0 9.0 0.00 0.18 0.00 83 1000.0
20260509140055 57 161 3.0 10.0 0.00 0.18 0.00 85 999.9
20260509134507 56 188 4.0 8.0 0.00 0.18 0.00 87 1000.1
20260509133104 56 185 6.0 11.0 0.00 0.18 0.00 87 1000.3
20260509131640 56 227 4.0 11.0 0.00 0.18 0.00 88 1000.2
20260509130047 55 199 4.0 11.0 0.00 0.18 0.00 89 1000.2
20260509124559 55 165 3.0 7.0 0.00 0.18 0.00 91 1000.1
20260509123140 54 181 3.0 7.0 0.00 0.18 0.00 91 1000.4
20260509121511 54 180 2.0 5.0 0.00 0.18 0.00 91 1000.4
20260509120057 54 192 3.0 8.0 0.00 0.18 0.00 92 1000.6
20260509114638 54 173 2.0 4.0 0.00 0.18 0.00 92 1000.6
20260509113149 53 182 0.0 4.0 0.00 0.18 0.00 93 1000.5
20260509111515 53 176 1.0 4.0 0.00 0.18 0.00 92 1000.6
20260509110057 53 192 2.0 5.0 0.00 0.18 0.00 92 1000.5
20260509104523 53 169 2.0 5.0 0.00 0.18 0.00 92 1000.3
20260509103108 53 176 3.0 5.0 0.00 0.18 0.00 92 1000.2
20260509101553 53 202 2.0 5.0 0.00 0.18 0.00 93 1000.2
20260509100011 52 193 1.0 4.0 0.00 0.18 0.00 93 1000.3
20260509094606 52 186 0.0 4.0 0.00 0.18 0.00 93 1000.4
20260509093135 52 178 1.0 3.0 0.00 0.18 0.00 93 1000.4
20260509091515 52 169 0.0 3.0 0.00 0.18 0.00 93 1000.4
20260509090104 52 166 1.0 3.0 0.00 0.18 0.00 93 1000.5
20260509084530 52 184 2.0 5.0 0.00 0.18 0.00 93 1000.8
20260509081641 52 186 1.0 4.0 0.00 0.18 0.00 93 1000.8
20260509080045 52 207 3.0 5.0 0.00 0.18 0.00 93 1001.1
20260509074615 52 180 2.0 5.0 0.00 0.18 0.00 92 1001.0
20260509073139 52 172 1.0 3.0 0.00 0.18 0.00 92 1001.0
20260509071528 52 193 3.0 6.0 0.00 0.18 0.00 92 1001.1
20260509064518 53 201 2.0 7.0 0.00 0.18 0.00 92 1001.3
20260509063050 53 173 2.0 8.0 0.00 0.18 0.00 92 1001.5
20260509061639 53 217 3.0 7.0 0.00 0.18 0.00 92 1001.6
20260509060142 52 167 3.0 8.0 0.00 0.18 0.00 92 1001.6
20260509054520 53 161 3.0 10.0 0.00 0.18 0.00 92 1001.8